TimeEDT,TemperatureF,Dew PointF,Humidity,Sea Level PressureIn,VisibilityMPH,Wind Direction,Wind SpeedMPH,Gust SpeedMPH,PrecipitationIn,Events,Conditions,WindDirDegrees,DateUTC
12:18 AM,80.6,73.4,79,30.01,10.0,NNE,6.9,-,N/A,Thunderstorm,Thunderstorm,20,2012-05-16 04:18:00
12:57 AM,78.8,69.8,74,30.02,-9999.0,NE,5.8,-,N/A,Thunderstorm,Thunderstorm,50,2012-05-16 04:57:00
1:53 AM,75.9,70.0,82,30.01,10.0,NNW,4.6,-,N/A,Thunderstorm,Overcast,330,2012-05-16 05:53:00
2:03 AM,75.2,69.8,83,30.00,10.0,North,4.6,-,N/A,,Overcast,350,2012-05-16 06:03:00
2:53 AM,75.9,70.0,82,29.99,10.0,Calm,Calm,-,N/A,,Partly Cloudy,0,2012-05-16 06:53:00
3:53 AM,78.1,71.1,79,29.99,10.0,NE,4.6,-,N/A,,Clear,40,2012-05-16 07:53:00
4:53 AM,78.1,71.1,79,29.98,10.0,NE,5.8,-,N/A,,Partly Cloudy,40,2012-05-16 08:53:00
5:53 AM,77.0,71.1,82,29.97,10.0,NNE,8.1,-,N/A,,Clear,20,2012-05-16 09:53:00
6:53 AM,78.1,71.1,79,29.99,10.0,NE,3.5,-,N/A,,Clear,40,2012-05-16 10:53:00
7:53 AM,79.0,72.0,79,29.99,10.0,NE,5.8,-,N/A,,Clear,50,2012-05-16 11:53:00
8:53 AM,80.1,70.0,71,30.01,10.0,East,6.9,-,N/A,,Clear,80,2012-05-16 12:53:00
9:53 AM,80.1,71.1,74,30.01,10.0,East,6.9,-,N/A,,Clear,80,2012-05-16 13:53:00
10:53 AM,81.0,72.0,74,30.02,10.0,East,8.1,-,N/A,,Clear,100,2012-05-16 14:53:00
11:53 AM,81.0,73.0,77,30.02,10.0,ESE,10.4,-,N/A,,Clear,110,2012-05-16 15:53:00
12:53 PM,82.0,73.9,76,30.03,10.0,ESE,8.1,-,N/A,,Clear,110,2012-05-16 16:53:00
1:53 PM,82.0,73.0,74,30.01,10.0,ESE,8.1,-,N/A,,Clear,110,2012-05-16 17:53:00
2:53 PM,81.0,73.0,77,29.99,10.0,ESE,8.1,-,N/A,,Clear,120,2012-05-16 18:53:00
3:53 PM,81.0,73.9,79,29.97,10.0,SSE,4.6,-,N/A,,Clear,150,2012-05-16 19:53:00
4:53 PM,81.0,75.0,82,29.96,10.0,SSE,5.8,-,N/A,,Clear,160,2012-05-16 20:53:00
5:53 PM,81.0,75.0,82,29.93,10.0,SE,5.8,-,0.00,,Clear,130,2012-05-16 21:53:00
6:53 PM,80.1,75.0,85,29.92,10.0,ESE,5.8,-,0.00,,Scattered Clouds,110,2012-05-16 22:53:00
7:53 PM,80.1,75.0,85,29.93,10.0,SE,5.8,-,0.00,,Partly Cloudy,130,2012-05-16 23:53:00
8:53 PM,80.1,73.9,81,29.95,10.0,SE,3.5,-,N/A,,Mostly Cloudy,130,2012-05-17 00:53:00
9:53 PM,80.1,73.0,79,29.96,10.0,ESE,4.6,-,N/A,,Mostly Cloudy,110,2012-05-17 01:53:00
10:53 PM,80.1,73.0,79,29.97,10.0,ESE,4.6,-,0.00,,Partly Cloudy,110,2012-05-17 02:53:00
11:53 PM,80.1,73.0,79,29.96,10.0,ESE,4.6,-,N/A,,Scattered Clouds,110,2012-05-17 03:53:00